SCP
0 0 0 0 0 0 0 0 0 0 0 0 0 0 0 0 0 0 0 0 0 0 0 0 0 0 0 0 0 0 0 0 0 0 0 0 0 0 0 0 0 0 0
0 0 0 0 0 0 0 0 0 0 0 0 0 0 0 0 0 0 0 0 0 0 0 0 0 0 0 0 0 0 0 0 0 0 0 0 0 0 0 0 0 0 0
0 0 0 0 0 0 0 0 0 0 0 0 0 0 0 0 0 0 0 0 0 0 0 0 0 0 0 0 0 0 0 0 0 0 0 0 0 0 0 0 0 0 0
0 0 0 0 0 0 0 0 0 0 0 0 0 0 0 0 0 0 0 0 0 0 0 0 0 0 0 0 0 0 0 0 0 0 0 0 0 0 0 0 0 0 0
0 0 0 0 0 0 0 0 0 0 0 0 0 0 0 0 0 0 0 0 0 0 0 0 0 0 0 0 0 0 0 0 0 0 0 0 0 0 0 0 0 0 0
0 0 0 0 0 0 0 0 0 0 0 0 0 0 0 0 0 0 0 0 0 0 0 0 0 0 0 0 0 0 0 0 0 0 0 0 0 0 0 0 0 0 0
0 0 0 0 0 0 0 0 0 0 0 0 0 0 0 0 0 0 0 0 0 0 0 0 0 0 0 0 0 0 0 0 0 0 0 0 0 0 0 0 0 0 0
0 0 0 0 0 0 0 0 0 0 0 0 0 0 0 0 0 0 0 0 0 0 0 0 0 0 0 0 0 0 0 0 0 0 0 0 0 1 0 0 0 0 0
0 0 0 0 0 0 0 0 0 0 0 0 0 0 0 0 0 0 0 0 0 0 0 0 0 0 0 0 0 0 0 0 0 0 0 0 0 0 0 0 0 0 0
0 0 0 0 0 0 0 0 0 0 0 0 0 0 0 0 0 0 0 0 0 0 0 0 0 0 0 0 0 0 0 0 0 0 0 0 0 0 0 0 0 0 0
0 0 0 0 0 0 0 0 0 0 0 0 0 0 0 0 0 0 0 0 0 0 0 0 0 0 0 0 0 0 0 0 0 0 0 0 0 0 0 1 1 1 1
0 0 0 0 0 0 0 0 0 0 0 0 0 0 0 0 0 0 0 0 0 0 0 0 0 0 0 0 0 0 0 0 0 0 0 0 0 0 1 1 1 1 1
0 0 0 0 0 0 0 0 0 0 0 0 0 0 0 0 0 0 0 0 0 0 0 0 0 0 0 0 0 0 0 0 0 0 0 0 0 0 0 1 0 0 0
0 0 0 0 0 0 0 0 0 0 0 0 0 0 0 0 0 0 0 0 0 0 0 0 0 0 0 0 0 0 0 0 0 0 0 0 0 0 0 0 0 0 0
0 0 0 0 0 0 0 0 0 0 0 0 0 0 0 0 0 0 0 0 0 0 0 0 0 0 0 0 0 0 0 0 0 0 0 0 0 0 0 0 0 0 0
0 0 0 0 0 0 0 0 0 0 0 0 0 0 0 0 0 0 0 0 0 0 0 0 0 0 0 0 0 0 0 0 0 0 0 0 0 0 0 0 0 0 0
0 0 0 0 0 0 0 0 0 0 0 0 0 0 0 0 0 0 0 0 0 0 0 0 0 0 0 0 0 0 0 0 0 0 0 0 0 0 0 0 0 0 0
0 0 0 0 0 0 0 0 0 0 0 0 0 0 0 0 0 0 0 0 0 0 0 0 0 0 0 0 0 0 0 0 0 0 0 0 0 0 0 0 0 0 0
0 0 0 0 0 0 0 0 0 0 0 0 0 0 0 0 0 0 0 0 0 0 0 0 0 0 0 0 0 0 0 0 0 0 0 0 0 0 0 0 0 0 0
0 0 0 0 0 0 0 0 0 0 0 0 0 0 0 0 0 0 0 0 0 0 0 0 0 0 0 0 0 0 0 0 0 0 0 0 0 0 0 0 0 0 0
0 0 0 0 0 0 0 0 0 0 0 0 0 0 0 0 0 0 0 0 0 0 0 0 0 0 0 0 0 0 0 0 0 0 0 0 0 0 0 0 0 0 0
0 0 0 0 0 0 0 0 0 0 0 0 0 0 0 0 0 0 0 0 0 0 0 0 0 0 0 0 0 0 0 0 0 0 0 0 0 0 0 0 0 0 0
0 0 0 0 0 0 0 0 0 0 0 0 0 0 0 0 0 0 0 0 0 0 0 0 0 0 0 0 0 0 0 0 0 0 0 0 0 0 0 0 0 0 0
0 0 0 0 0 0 0 0 0 0 0 0 0 0 0 0 0 0 0 0 0 0 0 0 0 0 0 0 0 0 0 0 0 0 0 0 0 0 0 0 0 0 0
0 0 0 0 0 0 0 0 0 0 0 0 0 0 0 0 0 0 0 0 0 0 0 0 0 0 0 0 0 0 0 0 0 0 0 0 0 0 0 0 0 0 0
0 0 0 0 0 0 0 0 0 0 0 0 0 0 0 0 0 0 0 0 0 0 0 0 0 0 0 0 0 0 0 0 0 0 0 0 0 0 0 0 0 0 0
Wind_Speed
4 4 4 5 5 5 5 6 6 6 6 6 7 7 7 7 6 5 7 7 7 7 6 7 8 7 5 5 5 4 4 4 5 3 1 1 1 1 2 3 4 4 5
4 4 5 5 5 5 6 6 6 6 6 7 7 7 7 7 7 7 8 8 8 8 8 8 8 6 8 6 5 6 5 5 4 4 2 1 0 1 2 4 4 4 5
4 4 5 6 6 6 7 6 6 7 7 7 7 7 8 8 8 8 8 9 9 9 9 9 9 8 8 7 7 7 6 5 4 4 3 1 1 1 3 3 5 4 5
4 5 6 6 6 7 7 7 7 7 7 8 8 8 9 9 9 9 9 9 9 9 9 9 10 9 10 9 8 8 7 6 5 4 4 2 2 2 3 4 4 4 4
5 6 7 7 7 7 7 8 8 8 8 8 8 9 9 8 8 9 9 9 9 9 9 9 10 12 13 10 8 8 8 7 6 5 4 3 3 4 4 4 4 5 4
5 7 7 7 7 7 8 8 8 8 8 8 8 9 9 8 10 13 11 9 9 9 10 9 10 12 14 15 15 13 12 10 9 7 5 6 6 5 4 5 5 5 4
6 7 7 7 8 8 8 8 8 8 8 9 9 9 10 11 14 15 16 10 10 10 10 9 9 9 11 9 11 13 14 15 13 9 8 7 7 7 7 8 7 6 4
6 7 7 7 8 8 8 9 8 7 8 8 9 10 10 11 13 13 14 11 9 10 10 10 10 10 9 9 9 9 9 10 12 9 8 8 7 7 8 7 7 6 5
7 7 7 7 8 9 9 9 8 7 8 8 8 9 10 11 12 12 11 7 8 10 10 10 10 10 11 11 10 9 9 8 9 11 10 8 8 9 8 7 7 7 5
8 8 8 7 8 9 9 9 7 7 8 8 9 8 9 10 11 11 9 5 7 8 8 8 12 12 12 13 10 9 10 8 7 8 8 7 7 8 11 9 8 8 5
7 7 8 8 8 9 8 7 8 8 8 8 9 8 8 8 10 10 8 5 6 7 6 6 7 11 13 13 12 9 9 8 7 7 7 6 5 5 7 7 7 7 7
6 7 8 8 8 7 7 8 7 7 8 8 7 8 6 6 6 7 8 7 7 7 6 6 6 10 12 12 10 9 10 8 5 6 6 6 6 6 6 7 8 6 4
6 8 8 9 8 7 7 8 7 6 6 6 6 6 6 5 5 7 8 7 7 5 5 7 7 9 9 8 10 11 9 7 6 6 6 6 5 6 6 5 6 6 5
7 8 7 8 8 8 6 5 6 6 6 6 6 6 6 5 4 4 4 4 5 4 4 4 5 6 6 5 6 7 6 6 6 6 6 5 4 5 5 5 5 6 5
7 7 7 7 7 8 7 6 7 7 7 7 6 5 6 6 5 6 5 4 3 3 2 1 1 2 3 4 4 5 5 6 6 5 5 5 5 5 5 5 5 6 5
6 7 6 6 6 6 7 8 8 8 10 10 10 8 7 9 9 8 7 7 6 5 2 2 2 3 4 4 5 5 5 6 6 5 5 5 6 6 5 5 5 6 6
6 7 6 6 6 6 6 6 8 8 8 8 8 9 9 9 8 7 6 5 4 3 2 2 3 3 3 4 4 4 5 5 5 6 6 6 6 6 6 6 6 6 6
6 7 7 6 6 6 6 6 6 7 8 6 5 7 8 7 7 6 5 3 2 2 2 3 3 3 3 4 4 4 4 5 5 5 5 6 6 6 6 6 6 7 7
5 5 5 6 6 6 6 6 6 6 6 6 6 5 4 4 4 5 3 3 3 3 3 3 3 3 3 4 4 4 5 5 6 5 5 6 6 6 6 6 6 8 7
5 8 8 5 6 6 5 5 6 6 6 6 5 5 3 1 2 2 3 3 3 3 3 3 3 3 3 4 4 4 5 5 6 5 5 5 6 6 7 7 7 8 7
4 6 8 6 5 5 5 5 5 5 5 5 5 5 4 3 4 4 3 3 4 4 4 3 3 3 4 3 4 5 6 5 5 6 6 6 6 6 6 6 7 7 7
4 4 4 5 5 5 5 5 5 5 6 6 5 5 4 3 3 4 3 3 4 4 4 3 3 3 4 4 5 5 5 6 6 6 6 6 6 6 7 7 7 7 7
4 5 5 4 5 6 5 4 4 4 5 5 5 4 4 3 3 3 3 3 2 2 3 3 3 3 3 4 4 5 6 6 6 7 7 7 7 7 7 8 9 9 9
4 4 4 4 4 4 5 5 4 4 4 5 4 4 4 4 3 3 3 2 2 1 1 2 2 3 4 3 4 4 5 5 6 7 9 8 8 7 7 8 9 11 10
3 4 4 4 4 4 4 5 4 4 4 4 4 4 4 4 3 3 2 2 1 1 1 1 1 1 2 3 3 3 4 6 6 6 7 7 9 9 9 10 9 10 10
3 3 3 3 3 4 4 4 4 4 4 4 4 4 4 3 3 3 3 2 1 1 1 1 0 0 1 2 2 3 4 5 6 6 6 7 8 8 9 8 11 10 11
Wind_Direction
281 280 284 283 282 280 274 273 275 277 277 274 274 274 272 270 264 255 253 254 252 254 250 241 243 235 229 226 220 222 223 224 248 262 270 312 6 138 111 109 115 123 134
279 284 282 283 285 283 278 278 278 277 277 273 273 273 272 269 261 254 257 257 249 250 250 244 246 240 231 226 219 221 222 218 229 251 252 251 253 165 138 126 115 118 122
285 286 287 287 285 280 277 279 281 280 280 279 273 270 270 269 265 259 255 256 252 249 247 242 243 237 234 227 221 221 219 219 216 231 244 227 181 164 141 125 120 114 113
285 285 285 284 281 279 279 280 280 278 278 277 274 270 269 269 266 263 258 255 253 252 249 244 241 234 232 227 223 220 215 213 213 219 229 227 203 179 159 148 140 126 118
289 288 283 284 284 283 282 282 281 279 279 275 276 276 272 268 263 258 253 254 251 253 252 247 244 239 235 227 222 215 208 206 205 210 218 212 205 184 178 158 154 136 118
284 283 285 288 289 286 284 284 285 284 282 280 277 277 275 271 267 265 263 259 254 252 253 251 249 250 245 234 228 217 206 202 202 201 208 214 212 197 182 165 155 154 154
282 284 287 289 290 288 289 291 288 286 285 285 282 278 275 272 268 268 268 264 255 251 248 248 250 245 233 230 229 226 219 215 203 196 203 209 205 199 187 180 176 167 155
284 286 288 290 291 292 291 288 286 285 285 285 284 282 280 278 274 269 269 265 256 250 245 240 240 244 237 225 222 222 221 221 215 208 208 210 208 197 191 184 170 141 110
284 285 287 289 292 295 293 290 288 287 288 286 284 284 283 284 281 278 272 265 256 253 246 239 234 237 234 222 219 219 220 227 224 215 209 210 202 191 177 166 164 158 154
280 283 286 287 289 291 289 288 286 284 285 288 286 283 280 282 285 284 279 260 256 255 248 241 235 231 227 214 213 212 215 219 213 205 204 206 201 192 182 181 177 169 153
278 285 289 288 287 285 283 283 287 288 289 287 287 287 282 279 285 286 284 261 251 251 248 242 235 225 222 214 210 211 213 206 205 198 191 187 185 190 191 189 186 177 167
283 288 291 291 290 291 289 291 289 287 290 291 292 296 290 283 282 291 292 281 259 246 246 243 236 223 218 212 210 210 204 197 195 187 184 183 186 191 192 189 189 187 175
289 291 293 296 294 288 287 292 297 293 287 289 290 293 296 295 289 291 298 299 289 257 249 242 235 225 217 212 214 205 195 195 192 189 190 189 192 187 174 174 173 165 143
285 292 296 300 302 301 293 286 287 290 291 290 288 289 294 297 299 307 311 310 305 281 263 250 232 218 208 200 196 199 196 195 194 193 187 176 170 171 173 170 167 163 154
284 291 297 297 298 303 301 289 283 275 265 270 279 278 285 293 298 303 302 298 292 286 276 229 205 194 189 186 183 182 185 190 193 186 171 162 170 172 170 167 159 161 164
285 294 297 300 302 302 305 307 289 274 279 267 256 256 264 262 283 294 296 295 285 277 253 218 211 206 197 185 180 181 186 188 186 178 171 170 172 173 168 165 166 166 166
271 285 293 296 299 302 303 304 310 312 299 281 270 267 258 268 277 282 290 296 281 248 228 233 221 207 202 189 184 182 183 182 177 175 176 173 172 171 169 170 172 171 169
272 281 286 288 292 295 296 298 297 301 308 309 295 282 278 272 268 270 278 284 257 223 230 239 235 216 200 193 191 186 177 169 173 177 174 172 174 173 173 176 179 175 169
277 282 285 288 289 291 293 295 297 298 297 298 304 304 292 276 263 257 249 242 246 244 237 235 233 222 208 198 190 185 179 177 176 175 176 176 176 176 179 183 181 172 168
274 285 294 292 295 299 300 302 306 307 306 305 304 304 304 282 269 257 226 234 242 244 243 237 230 221 210 200 188 183 182 180 178 181 181 181 181 180 181 182 180 174 175
276 290 301 301 295 296 299 302 304 306 306 308 303 294 278 267 271 271 258 237 236 239 235 232 226 215 209 199 188 186 186 185 184 184 182 183 182 181 183 182 181 178 171
269 281 289 294 297 300 301 300 303 307 311 313 313 315 303 278 277 279 276 260 247 239 233 230 227 214 203 196 189 186 188 190 188 188 185 182 182 181 179 179 178 175 172
263 279 289 294 295 301 306 308 311 313 314 314 313 317 320 310 301 295 293 284 266 249 239 230 231 225 210 201 198 195 195 195 190 184 181 179 180 180 178 180 180 176 176
258 274 286 296 302 307 310 312 314 314 317 317 318 323 324 321 318 313 308 297 289 273 247 232 228 226 218 205 198 198 203 196 186 187 186 181 179 180 180 181 181 181 179
256 272 282 292 301 306 308 311 314 319 324 323 322 327 331 331 330 326 323 320 318 313 298 266 228 218 212 206 196 190 183 183 186 181 180 181 180 180 179 180 179 178 175
253 268 279 289 298 304 307 310 316 323 326 326 325 329 334 333 331 331 331 337 348 352 330 318 355 140 167 187 183 166 166 173 175 176 177 176 176 178 178 179 178 178 173